Date String (YYYY-MM-DD hh:mm:ss) UTC,Instrument flags,Ambient pressure (hPa),Sample flow (lpm),Bypass flow (lpm),Sample temperature (°C),Ambient temperature (°C),ASC tube jacket temperature (°C),LED temperature (°C),Box temperature (°C),Sample RH (%),Span deviation,Mass concentration (μg/m³),Mass concentration (μg/m³),Mass concentration (μg/m³)
DateTimeUTC,F1_M11,P_M11,Q1_M11,Q2_M11,T1_M11,T2_M11,T3_M11,T4_M11,T5_M11,U1_M11,ZSPAN_M11,X0_M11,X2_M11,X1_M11
2022-12-30 00:00:00,,0818.9,5.03,0.00,22.2,21.0,00.0,31.0,24.0,08.0,0000.0,0007.39,0001.40,0000.94
2022-12-30 00:01:00,,0819.0,5.03,0.00,22.2,21.0,00.0,31.0,24.0,08.0,0000.0,0007.58,0001.50,0001.01
2022-12-30 00:02:00,,0818.9,4.98,0.00,22.2,20.9,00.0,31.0,23.9,08.0,0000.0,0007.12,0001.52,0001.05
2022-12-30 00:03:00,,0818.9,4.97,0.00,22.2,20.9,00.0,31.0,23.9,07.9,0000.0,0006.57,0001.53,0001.06
2022-12-30 00:04:00,,0819.0,4.97,0.00,22.2,20.9,00.0,31.0,23.9,07.8,0000.0,0005.22,0001.51,0001.06
2022-12-30 00:05:00,,0818.9,5.02,0.00,22.2,20.9,00.0,31.0,23.9,07.6,0000.0,0004.31,0001.42,0001.02
2022-12-30 00:06:00,,0818.9,5.00,0.00,22.2,20.8,00.0,31.0,23.9,07.7,0000.0,0003.84,0001.33,0000.97
2022-12-30 00:07:00,,0818.9,5.02,0.00,22.1,20.7,00.0,31.0,23.8,07.8,0000.0,0003.23,0001.22,0000.91
2022-12-30 00:08:00,,0818.9,4.98,0.00,22.1,20.6,00.0,31.0,23.8,07.9,0000.0,0003.13,0001.13,0000.83
2022-12-30 00:09:00,,0818.9,4.97,0.00,22.1,20.6,00.0,31.0,23.8,07.7,0000.0,0003.05,0001.06,0000.78
2022-12-30 00:10:00,,0819.0,5.01,0.00,22.1,20.5,00.0,31.0,23.7,07.6,0000.0,0002.41,0000.98,0000.72
2022-12-30 00:11:00,,0819.0,5.04,0.00,22.0,20.5,00.0,30.9,23.7,07.7,0000.0,0001.88,0000.90,0000.66
2022-12-30 00:12:00,,0819.0,5.01,0.00,22.0,20.5,00.0,30.9,23.7,07.8,0000.0,0001.58,0000.80,0000.59
2022-12-30 00:13:00,,0818.9,4.98,0.00,22.1,21.2,00.0,30.9,23.9,07.6,0000.0,0001.43,0000.70,0000.52
2022-12-30 00:14:00,,0818.9,4.98,0.00,22.2,22.1,00.0,30.9,24.1,07.5,0000.0,0001.34,0000.64,0000.47
2022-12-30 00:15:00,,0818.9,5.02,0.00,22.3,22.6,00.0,30.9,24.3,07.4,0000.0,0001.18,0000.58,0000.43
2022-12-30 00:16:00,,0818.9,5.01,0.00,22.3,22.2,00.0,31.0,24.2,07.6,0000.0,0001.14,0000.57,0000.43
2022-12-30 00:17:00,,0818.9,5.00,0.00,22.3,21.7,00.0,31.0,24.1,08.0,0000.0,0001.03,0000.57,0000.43
2022-12-30 00:18:00,,0818.9,4.98,0.00,22.2,21.4,00.0,31.0,24.0,07.8,0000.0,0000.95,0000.59,0000.43
2022-12-30 00:19:00,,0818.9,5.00,0.00,22.2,21.2,00.0,31.0,23.9,07.7,0000.0,0000.94,0000.57,0000.44
2022-12-30 00:20:00,,0819.0,5.01,0.00,22.2,21.0,00.0,31.0,23.8,07.8,0000.0,0000.92,0000.58,0000.44
2022-12-30 00:21:00,,0819.0,5.01,0.00,22.2,20.9,00.0,31.0,23.8,07.7,0000.0,0000.88,0000.58,0000.44
2022-12-30 00:22:00,,0819.0,4.99,0.00,22.1,20.8,00.0,31.0,23.8,07.7,0000.0,0000.89,0000.58,0000.45
2022-12-30 00:23:00,,0819.0,4.99,0.00,22.1,20.7,00.0,31.0,23.7,07.7,0000.0,0000.87,0000.56,0000.44
2022-12-30 00:24:00,,0819.0,4.97,0.00,22.1,20.6,00.0,31.0,23.7,07.7,0000.0,0000.91,0000.58,0000.45
2022-12-30 00:25:00,,0819.1,5.03,0.00,22.1,20.6,00.0,31.0,23.7,07.8,0000.0,0001.03,0000.63,0000.47
2022-12-30 00:26:00,,0819.1,5.01,0.00,22.0,20.6,00.0,31.0,23.6,07.8,0000.0,0001.08,0000.65,0000.48
2022-12-30 00:27:00,,0819.1,5.01,0.00,22.0,20.5,00.0,31.0,23.6,07.8,0000.0,0001.14,0000.67,0000.49
2022-12-30 00:28:00,,0819.1,4.97,0.00,22.0,20.5,00.0,31.0,23.6,07.7,0000.0,0001.18,0000.68,0000.50
2022-12-30 00:29:00,,0819.0,4.96,0.00,22.0,20.4,00.0,30.9,23.6,07.6,0000.0,0001.18,0000.68,0000.50
2022-12-30 00:30:00,,0819.0,5.06,0.00,21.9,20.4,00.0,30.9,23.5,07.6,0000.0,0001.16,0000.67,0000.50
2022-12-30 00:31:00,,0819.1,5.02,0.00,21.9,20.6,00.0,30.9,23.6,07.5,0000.0,0001.10,0000.65,0000.50
2022-12-30 00:32:00,,0819.0,4.98,0.00,22.0,21.5,00.0,30.8,23.8,07.5,0000.0,0001.08,0000.64,0000.50
2022-12-30 00:33:00,,0819.2,4.96,0.00,22.1,22.4,00.0,30.8,24.1,07.5,0000.0,0001.07,0000.64,0000.50
2022-12-30 00:34:00,,0819.1,5.03,0.00,22.2,22.5,00.0,30.9,24.2,07.6,0000.0,0001.06,0000.63,0000.50
2022-12-30 00:35:00,,0819.0,5.00,0.00,22.2,22.1,00.0,31.0,24.1,07.6,0000.0,0001.16,0000.65,0000.51
2022-12-30 00:36:00,,0818.9,5.02,0.00,22.2,21.7,00.0,31.0,24.0,07.6,0000.0,0002.88,0000.62,0000.50
2022-12-30 00:37:00,,0818.9,4.96,0.00,22.2,21.4,00.0,31.0,23.9,08.0,0000.0,0003.79,0000.62,0000.50
2022-12-30 00:38:00,,0818.9,4.97,0.00,22.2,21.1,00.0,31.0,23.8,08.2,0000.0,0003.85,0000.64,0000.50
2022-12-30 00:39:00,,0818.9,4.98,0.00,22.1,20.8,00.0,31.0,23.7,08.3,0000.0,0003.91,0000.67,0000.50
2022-12-30 00:40:00,,0819.0,5.04,0.00,22.1,20.6,00.0,30.9,23.6,08.2,0000.0,0004.47,0000.68,0000.50
2022-12-30 00:41:00,,0819.0,5.00,0.00,22.0,20.4,00.0,30.9,23.6,08.2,0000.0,0004.68,0000.68,0000.50
2022-12-30 00:42:00,,0819.0,4.99,0.00,22.0,20.3,00.0,30.9,23.5,08.1,0000.0,0004.73,0000.70,0000.50
2022-12-30 00:43:00,,0819.0,5.01,0.00,21.9,20.1,00.0,30.9,23.4,08.0,0000.0,0004.96,0000.75,0000.50
2022-12-30 00:44:00,,0819.0,4.99,0.00,21.9,20.6,00.0,30.8,23.6,08.0,0000.0,0004.95,0000.75,0000.50
2022-12-30 00:45:00,,0819.0,4.97,0.00,22.0,21.7,00.0,30.8,23.9,07.8,0000.0,0005.00,0000.77,0000.51
2022-12-30 00:46:00,,0819.0,5.01,0.00,22.2,22.5,00.0,30.9,24.2,07.7,0000.0,0004.85,0000.75,0000.50
2022-12-30 00:47:00,,0819.0,5.02,0.00,22.2,22.4,00.0,30.9,24.2,08.0,0000.0,0002.93,0000.72,0000.49
2022-12-30 00:48:00,,0819.1,4.99,0.00,22.2,21.8,00.0,31.0,24.0,07.7,0000.0,0002.08,0000.72,0000.49
2022-12-30 00:49:00,,0819.1,4.97,0.00,22.2,21.3,00.0,31.0,23.9,07.8,0000.0,0001.98,0000.68,0000.48
2022-12-30 00:50:00,,0819.1,5.01,0.00,22.1,20.9,00.0,31.0,23.8,07.9,0000.0,0002.15,0000.68,0000.48
2022-12-30 00:51:00,,0819.1,5.00,0.00,22.1,20.7,00.0,31.0,23.6,08.2,0000.0,0002.10,0000.68,0000.48
2022-12-30 00:52:00,,0819.1,4.99,0.00,22.0,20.5,00.0,31.0,23.5,07.9,0000.0,0001.87,0000.67,0000.48
2022-12-30 00:53:00,,0819.0,4.98,0.00,22.0,20.4,00.0,30.9,23.5,07.9,0000.0,0001.91,0000.69,0000.48
2022-12-30 00:54:00,,0819.0,4.98,0.00,21.9,20.3,00.0,30.9,23.4,07.8,0000.0,0001.77,0000.67,0000.49
2022-12-30 00:55:00,,0819.1,4.99,0.00,21.9,20.1,00.0,30.9,23.3,07.9,0000.0,0002.67,0000.70,0000.49
2022-12-30 00:56:00,,0819.1,4.97,0.00,21.8,20.3,00.0,30.8,23.4,08.2,0000.0,0002.78,0000.69,0000.49
2022-12-30 00:57:00,,0819.1,5.05,0.00,21.9,21.3,00.0,30.8,23.7,08.2,0000.0,0002.84,0000.71,0000.50
2022-12-30 00:58:00,,0819.2,5.01,0.00,22.0,22.3,00.0,30.8,24.0,08.0,0000.0,0002.86,0000.73,0000.51
2022-12-30 00:59:00,,0819.2,4.97,0.00,22.2,22.9,00.0,30.8,24.3,08.1,0000.0,0002.80,0000.71,0000.51
